| time (UTC) | temp F | wind direction | speed MPH | gust MPH | rain 1hr in | rain 24hr in | rain mn in | humidity % | barometer mb |
| 20260506215203 | 45 | 305 | 2.0 | 5.0 | 0.00 | 0.00 | 0.00 | 86 | 1011.8 |
| 20260506214703 | 45 | 313 | 2.0 | 3.0 | 0.00 | 0.00 | 0.00 | 86 | 1011.8 |
| 20260506214202 | 45 | 309 | 2.0 | 5.0 | 0.00 | 0.00 | 0.00 | 86 | 1011.8 |
| 20260506213702 | 46 | 301 | 2.0 | 5.0 | 0.00 | 0.00 | 0.00 | 86 | 1011.8 |
| 20260506213203 | 46 | 316 | 2.0 | 3.0 | 0.00 | 0.00 | 0.00 | 86 | 1011.7 |
| 20260506212703 | 46 | 326 | 1.0 | 3.0 | 0.00 | 0.00 | 0.00 | 86 | 1011.6 |
| 20260506212203 | 46 | 320 | 2.0 | 3.0 | 0.00 | 0.00 | 0.00 | 85 | 1011.6 |
| 20260506211203 | 46 | 334 | 2.0 | 5.0 | 0.00 | 0.00 | 0.00 | 85 | 1011.5 |
| 20260506210703 | 46 | 344 | 2.0 | 5.0 | 0.00 | 0.00 | 0.00 | 85 | 1011.5 |
| 20260506210204 | 46 | 325 | 2.0 | 5.0 | 0.00 | 0.00 | 0.00 | 85 | 1011.5 |
| 20260506205703 | 46 | 323 | 2.0 | 5.0 | 0.00 | 0.00 | 0.00 | 85 | 1011.5 |
| 20260506205203 | 47 | 325 | 2.0 | 5.0 | 0.00 | 0.00 | 0.00 | 84 | 1011.5 |
| 20260506204704 | 47 | 321 | 3.0 | 6.0 | 0.00 | 0.00 | 0.00 | 84 | 1011.5 |
| 20260506204203 | 47 | 332 | 1.0 | 6.0 | 0.00 | 0.00 | 0.00 | 84 | 1011.6 |
| 20260506203703 | 47 | 336 | 2.0 | 6.0 | 0.00 | 0.00 | 0.00 | 83 | 1011.6 |
| 20260506203203 | 47 | 334 | 3.0 | 5.0 | 0.00 | 0.00 | 0.00 | 83 | 1011.6 |
| 20260506202704 | 47 | 332 | 2.0 | 5.0 | 0.00 | 0.00 | 0.00 | 83 | 1011.5 |
| 20260506202203 | 48 | 346 | 3.0 | 6.0 | 0.00 | 0.00 | 0.00 | 82 | 1011.5 |
| 20260506201703 | 48 | 326 | 3.0 | 5.0 | 0.00 | 0.00 | 0.00 | 82 | 1011.4 |
| 20260506201204 | 48 | 324 | 2.0 | 8.0 | 0.00 | 0.00 | 0.00 | 82 | 1011.4 |
| 20260506195703 | 49 | 335 | 3.0 | 6.0 | 0.00 | 0.00 | 0.00 | 80 | 1011.3 |
| 20260506195204 | 49 | 336 | 1.0 | 3.0 | 0.00 | 0.00 | 0.00 | 80 | 1011.2 |
| 20260506194704 | 49 | 336 | 1.0 | 3.0 | 0.00 | 0.00 | 0.00 | 79 | 1011.2 |
| 20260506194204 | 49 | 340 | 1.0 | 3.0 | 0.00 | 0.00 | 0.00 | 79 | 1011.1 |
| 20260506193204 | 50 | 11 | 1.0 | 3.0 | 0.00 | 0.00 | 0.00 | 77 | 1011.1 |
| 20260506192704 | 50 | 341 | 2.0 | 3.0 | 0.00 | 0.00 | 0.00 | 77 | 1011.1 |
| 20260506192203 | 50 | 339 | 3.0 | 8.0 | 0.00 | 0.00 | 0.00 | 76 | 1010.9 |
| 20260506191703 | 51 | 355 | 2.0 | 7.0 | 0.00 | 0.00 | 0.00 | 76 | 1010.8 |
| 20260506190704 | 51 | 339 | 4.0 | 10.0 | 0.00 | 0.00 | 0.00 | 75 | 1010.7 |
| 20260506185703 | 52 | 354 | 4.0 | 12.0 | 0.00 | 0.00 | 0.00 | 74 | 1010.5 |
| 20260506185204 | 52 | 1 | 6.0 | 12.0 | 0.00 | 0.00 | 0.00 | 73 | 1010.4 |
| 20260506184704 | 52 | 357 | 5.0 | 12.0 | 0.00 | 0.00 | 0.00 | 73 | 1010.4 |
| 20260506184203 | 52 | 335 | 5.0 | 10.0 | 0.00 | 0.00 | 0.00 | 72 | 1010.3 |
| 20260506183704 | 52 | 16 | 4.0 | 9.0 | 0.00 | 0.00 | 0.00 | 72 | 1010.3 |
| 20260506183204 | 53 | 342 | 5.0 | 12.0 | 0.00 | 0.00 | 0.00 | 71 | 1010.3 |
| 20260506182703 | 53 | 339 | 3.0 | 8.0 | 0.00 | 0.00 | 0.00 | 71 | 1010.2 |
| 20260506181204 | 53 | 19 | 3.0 | 12.0 | 0.00 | 0.00 | 0.00 | 70 | 1010.0 |
| 20260506180703 | 54 | 348 | 4.0 | 10.0 | 0.00 | 0.00 | 0.00 | 70 | 1010.0 |
| 20260506180204 | 54 | 22 | 4.0 | 10.0 | 0.00 | 0.00 | 0.00 | 69 | 1009.9 |
| 20260506175704 | 54 | 355 | 4.0 | 12.0 | 0.00 | 0.00 | 0.00 | 68 | 1009.8 |
| 20260506175203 | 54 | 348 | 7.0 | 14.0 | 0.00 | 0.00 | 0.00 | 68 | 1009.8 |
| 20260506174704 | 54 | 349 | 6.0 | 13.0 | 0.00 | 0.00 | 0.00 | 68 | 1009.7 |
| 20260506174204 | 54 | 338 | 6.0 | 13.0 | 0.00 | 0.00 | 0.00 | 68 | 1009.7 |
| 20260506173704 | 55 | 345 | 5.0 | 12.0 | 0.00 | 0.00 | 0.00 | 68 | 1009.6 |
| 20260506173204 | 54 | 0 | 5.0 | 12.0 | 0.00 | 0.00 | 0.00 | 69 | 1009.5 |
| 20260506172704 | 54 | 347 | 7.0 | 12.0 | 0.00 | 0.00 | 0.00 | 69 | 1009.5 |
| 20260506172204 | 54 | 3 | 2.0 | 12.0 | 0.00 | 0.00 | 0.00 | 70 | 1009.4 |
| 20260506171204 | 55 | 355 | 6.0 | 14.0 | 0.00 | 0.00 | 0.00 | 69 | 1009.4 |
| 20260506170704 | 55 | 354 | 6.0 | 12.0 | 0.00 | 0.00 | 0.00 | 69 | 1009.3 |
| 20260506170204 | 56 | 5 | 5.0 | 10.0 | 0.00 | 0.00 | 0.00 | 68 | 1009.3 |
| 20260506165704 | 56 | 357 | 6.0 | 15.0 | 0.00 | 0.00 | 0.00 | 66 | 1009.2 |
| 20260506165204 | 56 | 16 | 7.0 | 17.0 | 0.00 | 0.00 | 0.00 | 66 | 1009.2 |
| 20260506164704 | 57 | 5 | 6.0 | 13.0 | 0.00 | 0.00 | 0.00 | 66 | 1009.2 |
| 20260506164204 | 57 | 27 | 3.0 | 13.0 | 0.00 | 0.00 | 0.00 | 66 | 1009.2 |
| 20260506163704 | 57 | 42 | 3.0 | 13.0 | 0.00 | 0.00 | 0.00 | 65 | 1009.2 |
| 20260506163204 | 58 | 13 | 6.0 | 14.0 | 0.00 | 0.00 | 0.00 | 64 | 1009.1 |
| 20260506162704 | 58 | 5 | 8.0 | 14.0 | 0.00 | 0.00 | 0.00 | 65 | 1009.1 |
| 20260506161704 | 57 | 24 | 6.0 | 12.0 | 0.00 | 0.00 | 0.00 | 66 | 1009.2 |
| 20260506161205 | 57 | 38 | 5.0 | 12.0 | 0.00 | 0.00 | 0.00 | 66 | 1009.1 |
| 20260506160204 | 57 | 54 | 6.0 | 14.0 | 0.00 | 0.00 | 0.00 | 67 | 1009.1 |
| 20260506155704 | 57 | 21 | 2.0 | 12.0 | 0.00 | 0.00 | 0.00 | 67 | 1009.1 |
| 20260506155204 | 57 | 28 | 6.0 | 12.0 | 0.00 | 0.00 | 0.00 | 67 | 1009.1 |
| 20260506154704 | 57 | 39 | 6.0 | 13.0 | 0.00 | 0.00 | 0.00 | 68 | 1009.1 |
| 20260506154204 | 57 | 5 | 6.0 | 14.0 | 0.00 | 0.00 | 0.00 | 68 | 1009.1 |
| 20260506153205 | 58 | 14 | 6.0 | 12.0 | 0.00 | 0.00 | 0.00 | 68 | 1009.1 |
| 20260506152705 | 58 | 354 | 6.0 | 12.0 | 0.00 | 0.00 | 0.00 | 69 | 1009.1 |
| 20260506152204 | 58 | 12 | 7.0 | 17.0 | 0.00 | 0.00 | 0.00 | 69 | 1009.1 |
| 20260506151705 | 58 | 16 | 4.0 | 14.0 | 0.00 | 0.00 | 0.00 | 69 | 1009.0 |
| 20260506151204 | 58 | 353 | 6.0 | 12.0 | 0.00 | 0.00 | 0.00 | 69 | 1009.0 |
| 20260506150704 | 58 | 15 | 5.0 | 12.0 | 0.00 | 0.00 | 0.00 | 69 | 1009.0 |
| 20260506150204 | 58 | 34 | 6.0 | 12.0 | 0.00 | 0.00 | 0.00 | 68 | 1009.0 |
| 20260506145705 | 57 | 52 | 5.0 | 15.0 | 0.00 | 0.00 | 0.00 | 66 | 1008.9 |
| 20260506145205 | 57 | 44 | 5.0 | 14.0 | 0.00 | 0.00 | 0.00 | 64 | 1008.9 |
| 20260506143705 | 58 | 14 | 7.0 | 12.0 | 0.00 | 0.00 | 0.00 | 64 | 1008.9 |
| 20260506142201 | 58 | 45 | 5.0 | 16.0 | 0.00 | 0.00 | 0.00 | 64 | 1008.8 |
| 20260506141700 | 58 | 28 | 6.0 | 16.0 | 0.00 | 0.00 | 0.00 | 63 | 1008.9 |
| 20260506140701 | 58 | 2 | 8.0 | 16.0 | 0.00 | 0.00 | 0.00 | 62 | 1008.9 |
| 20260506140201 | 58 | 34 | 6.0 | 14.0 | 0.00 | 0.00 | 0.00 | 63 | 1008.9 |
| 20260506135701 | 57 | 20 | 5.0 | 13.0 | 0.00 | 0.00 | 0.00 | 64 | 1008.9 |
| 20260506134201 | 57 | 43 | 9.0 | 16.0 | 0.00 | 0.00 | 0.00 | 61 | 1008.7 |
| 20260506133701 | 57 | 33 | 4.0 | 14.0 | 0.00 | 0.00 | 0.00 | 63 | 1008.8 |
| 20260506133201 | 57 | 38 | 5.0 | 12.0 | 0.00 | 0.00 | 0.00 | 62 | 1008.8 |
| 20260506132701 | 57 | 15 | 5.0 | 18.0 | 0.00 | 0.00 | 0.00 | 62 | 1008.8 |
| 20260506132201 | 57 | 31 | 7.0 | 18.0 | 0.00 | 0.00 | 0.00 | 63 | 1008.9 |
| 20260506131701 | 57 | 29 | 7.0 | 18.0 | 0.00 | 0.00 | 0.00 | 63 | 1008.8 |
| 20260506130701 | 57 | 61 | 7.0 | 14.0 | 0.00 | 0.00 | 0.00 | 62 | 1008.7 |
| 20260506130201 | 58 | 18 | 5.0 | 14.0 | 0.00 | 0.00 | 0.00 | 61 | 1008.7 |
| 20260506125701 | 58 | 25 | 5.0 | 14.0 | 0.00 | 0.00 | 0.00 | 61 | 1008.7 |
| 20260506125201 | 58 | 39 | 6.0 | 13.0 | 0.00 | 0.00 | 0.00 | 61 | 1008.8 |
| 20260506124701 | 58 | 11 | 6.0 | 14.0 | 0.00 | 0.00 | 0.00 | 61 | 1008.7 |
| 20260506124201 | 58 | 23 | 5.0 | 12.0 | 0.00 | 0.00 | 0.00 | 60 | 1008.7 |
| 20260506123701 | 58 | 11 | 4.0 | 10.0 | 0.00 | 0.00 | 0.00 | 60 | 1008.7 |
| 20260506123201 | 59 | 22 | 3.0 | 15.0 | 0.00 | 0.00 | 0.00 | 58 | 1008.7 |
| 20260506122701 | 59 | 35 | 6.0 | 16.0 | 0.00 | 0.00 | 0.00 | 55 | 1008.6 |
| 20260506122201 | 59 | 50 | 7.0 | 16.0 | 0.00 | 0.00 | 0.00 | 54 | 1008.6 |
| 20260506121702 | 59 | 47 | 7.0 | 20.0 | 0.00 | 0.00 | 0.00 | 53 | 1008.7 |
| 20260506120701 | 58 | 10 | 7.0 | 16.0 | 0.00 | 0.00 | 0.00 | 55 | 1008.5 |
| 20260506120201 | 58 | 47 | 6.0 | 12.0 | 0.00 | 0.00 | 0.00 | 57 | 1008.6 |
| 20260506115701 | 57 | 50 | 9.0 | 15.0 | 0.00 | 0.00 | 0.00 | 56 | 1008.6 |
| 20260506115202 | 57 | 43 | 6.0 | 10.0 | 0.00 | 0.00 | 0.00 | 56 | 1008.5 |
| 20260506114701 | 57 | 45 | 6.0 | 16.0 | 0.00 | 0.00 | 0.00 | 56 | 1008.5 |
| 20260506113701 | 57 | 37 | 7.0 | 14.0 | 0.00 | 0.00 | 0.00 | 56 | 1008.5 |
| 20260506112202 | 57 | 74 | 7.0 | 14.0 | 0.00 | 0.00 | 0.00 | 58 | 1008.5 |
| 20260506111701 | 57 | 35 | 7.0 | 16.0 | 0.00 | 0.00 | 0.00 | 57 | 1008.5 |
| 20260506111202 | 57 | 33 | 6.0 | 12.0 | 0.00 | 0.00 | 0.00 | 57 | 1008.5 |
| 20260506110701 | 57 | 35 | 8.0 | 16.0 | 0.00 | 0.00 | 0.00 | 58 | 1008.5 |
| 20260506110201 | 57 | 58 | 5.0 | 15.0 | 0.00 | 0.00 | 0.00 | 58 | 1008.5 |
| 20260506105701 | 57 | 42 | 8.0 | 15.0 | 0.00 | 0.00 | 0.00 | 60 | 1008.5 |
| 20260506105201 | 56 | 47 | 9.0 | 16.0 | 0.00 | 0.00 | 0.00 | 60 | 1008.4 |
| 20260506104702 | 56 | 66 | 8.0 | 17.0 | 0.00 | 0.00 | 0.00 | 60 | 1008.3 |
| 20260506104202 | 56 | 33 | 10.0 | 20.0 | 0.00 | 0.00 | 0.00 | 60 | 1008.4 |
| 20260506103701 | 56 | 50 | 7.0 | 18.0 | 0.00 | 0.00 | 0.00 | 60 | 1008.4 |
| 20260506103201 | 56 | 36 | 10.0 | 16.0 | 0.00 | 0.00 | 0.00 | 61 | 1008.4 |
| 20260506102702 | 56 | 38 | 5.0 | 18.0 | 0.00 | 0.00 | 0.00 | 62 | 1008.4 |
| 20260506102201 | 56 | 30 | 6.0 | 12.0 | 0.00 | 0.00 | 0.00 | 63 | 1008.4 |
| 20260506101702 | 56 | 41 | 8.0 | 17.0 | 0.00 | 0.00 | 0.00 | 62 | 1008.3 |
| 20260506101202 | 56 | 13 | 9.0 | 14.0 | 0.00 | 0.00 | 0.00 | 63 | 1008.3 |
| 20260506100701 | 56 | 48 | 7.0 | 18.0 | 0.00 | 0.00 | 0.00 | 63 | 1008.3 |
| 20260506100201 | 56 | 36 | 7.0 | 15.0 | 0.00 | 0.00 | 0.00 | 64 | 1008.2 |
| 20260506095701 | 56 | 42 | 8.0 | 15.0 | 0.00 | 0.00 | 0.00 | 65 | 1008.2 |
| 20260506095201 | 55 | 32 | 8.0 | 15.0 | 0.00 | 0.00 | 0.00 | 65 | 1008.2 |
| 20260506094701 | 55 | 44 | 10.0 | 18.0 | 0.00 | 0.00 | 0.00 | 64 | 1008.3 |
| 20260506094202 | 55 | 29 | 7.0 | 15.0 | 0.00 | 0.00 | 0.00 | 65 | 1008.3 |
| 20260506093702 | 55 | 46 | 6.0 | 15.0 | 0.00 | 0.00 | 0.00 | 64 | 1008.2 |
| 20260506093201 | 55 | 34 | 9.0 | 20.0 | 0.00 | 0.00 | 0.00 | 64 | 1008.2 |
| 20260506092701 | 55 | 30 | 10.0 | 18.0 | 0.00 | 0.00 | 0.00 | 64 | 1008.2 |
| 20260506091702 | 55 | 45 | 6.0 | 17.0 | 0.00 | 0.00 | 0.00 | 64 | 1008.2 |
| 20260506091202 | 55 | 47 | 6.0 | 15.0 | 0.00 | 0.00 | 0.00 | 64 | 1008.1 |
| 20260506090702 | 55 | 43 | 9.0 | 20.0 | 0.00 | 0.00 | 0.00 | 63 | 1008.1 |
| 20260506090202 | 55 | 27 | 7.0 | 16.0 | 0.00 | 0.00 | 0.00 | 64 | 1008.2 |
| 20260506085702 | 55 | 26 | 5.0 | 12.0 | 0.00 | 0.00 | 0.00 | 64 | 1008.1 |
| 20260506084702 | 55 | 45 | 6.0 | 14.0 | 0.00 | 0.00 | 0.00 | 64 | 1008.1 |
| 20260506084202 | 55 | 15 | 9.0 | 16.0 | 0.00 | 0.00 | 0.00 | 63 | 1008.1 |
| 20260506083702 | 55 | 66 | 6.0 | 13.0 | 0.00 | 0.00 | 0.00 | 63 | 1008.0 |
| 20260506083201 | 55 | 36 | 5.0 | 14.0 | 0.00 | 0.00 | 0.00 | 63 | 1008.0 |
| 20260506082702 | 55 | 47 | 7.0 | 16.0 | 0.00 | 0.00 | 0.00 | 65 | 1008.0 |
| 20260506082202 | 55 | 30 | 5.0 | 12.0 | 0.00 | 0.00 | 0.00 | 67 | 1008.0 |
| 20260506081702 | 55 | 26 | 3.0 | 12.0 | 0.00 | 0.00 | 0.00 | 68 | 1007.9 |
| 20260506081202 | 54 | 39 | 7.0 | 14.0 | 0.00 | 0.00 | 0.00 | 69 | 1007.9 |
| 20260506080702 | 54 | 37 | 9.0 | 16.0 | 0.00 | 0.00 | 0.00 | 70 | 1007.9 |
| 20260506080202 | 54 | 49 | 6.0 | 14.0 | 0.00 | 0.00 | 0.00 | 72 | 1007.9 |
| 20260506073202 | 53 | 62 | 6.0 | 15.0 | 0.00 | 0.00 | 0.00 | 81 | 1007.7 |
| 20260506072702 | 53 | 45 | 5.0 | 10.0 | 0.00 | 0.00 | 0.00 | 82 | 1007.7 |
| 20260506072202 | 53 | 42 | 6.0 | 14.0 | 0.00 | 0.00 | 0.00 | 82 | 1007.7 |
| 20260506070702 | 52 | 30 | 3.0 | 10.0 | 0.00 | 0.00 | 0.00 | 85 | 1007.7 |
| 20260506070202 | 52 | 18 | 6.0 | 12.0 | 0.00 | 0.00 | 0.00 | 86 | 1007.6 |
| 20260506062202 | 50 | 352 | 2.0 | 8.0 | 0.00 | 0.00 | 0.00 | 89 | 1007.5 |
| 20260506061702 | 50 | 10 | 6.0 | 12.0 | 0.00 | 0.00 | 0.00 | 90 | 1007.5 |
| 20260506061203 | 50 | 15 | 4.0 | 10.0 | 0.00 | 0.00 | 0.00 | 90 | 1007.5 |
| 20260506060702 | 49 | 340 | 2.0 | 12.0 | 0.00 | 0.00 | 0.00 | 91 | 1007.5 |
| 20260506060202 | 49 | 356 | 3.0 | 5.0 | 0.00 | 0.00 | 0.00 | 91 | 1007.5 |
| 20260506051202 | 47 | 345 | 3.0 | 6.0 | 0.00 | 0.00 | 0.00 | 92 | 1007.5 |
| 20260506050703 | 47 | 351 | 2.0 | 5.0 | 0.00 | 0.00 | 0.00 | 92 | 1007.5 |
| 20260506050202 | 47 | 340 | 2.0 | 6.0 | 0.00 | 0.00 | 0.00 | 92 | 1007.5 |
| 20260506044703 | 47 | 346 | 2.0 | 7.0 | 0.00 | 0.00 | 0.00 | 92 | 1007.5 |
| 20260506043702 | 47 | 328 | 3.0 | 6.0 | 0.00 | 0.00 | 0.00 | 92 | 1007.5 |
| 20260506043203 | 47 | 336 | 2.0 | 6.0 | 0.00 | 0.00 | 0.00 | 92 | 1007.5 |
| 20260506041203 | 47 | 326 | 2.0 | 5.0 | 0.00 | 0.00 | 0.00 | 91 | 1007.5 |
| 20260506040703 | 47 | 339 | 3.0 | 5.0 | 0.00 | 0.00 | 0.00 | 91 | 1007.5 |
| 20260506040204 | 47 | 331 | 2.0 | 6.0 | 0.00 | 0.00 | 0.00 | 91 | 1007.5 |
| 20260506035704 | 47 | 333 | 2.0 | 3.0 | 0.00 | 0.00 | 0.00 | 91 | 1007.5 |
| 20260506035203 | 48 | 330 | 3.0 | 5.0 | 0.00 | 0.00 | 0.00 | 91 | 1007.5 |
| 20260506034702 | 48 | 338 | 3.0 | 5.0 | 0.00 | 0.00 | 0.00 | 91 | 1007.5 |
| 20260506034203 | 48 | 330 | 3.0 | 6.0 | 0.00 | 0.00 | 0.00 | 91 | 1007.5 |
| 20260506033703 | 48 | 350 | 2.0 | 5.0 | 0.00 | 0.00 | 0.00 | 91 | 1007.6 |
| 20260506032703 | 48 | 344 | 2.0 | 6.0 | 0.00 | 0.00 | 0.00 | 91 | 1007.6 |
| 20260506032203 | 48 | 336 | 3.0 | 6.0 | 0.00 | 0.00 | 0.00 | 90 | 1007.6 |
| 20260506031203 | 48 | 334 | 2.0 | 6.0 | 0.00 | 0.00 | 0.00 | 90 | 1007.7 |
| 20260506030703 | 48 | 341 | 3.0 | 6.0 | 0.00 | 0.00 | 0.00 | 90 | 1007.7 |
| 20260506025702 | 48 | 337 | 3.0 | 10.0 | 0.00 | 0.00 | 0.00 | 89 | 1007.8 |
| 20260506025203 | 48 | 321 | 3.0 | 8.0 | 0.00 | 0.00 | 0.00 | 89 | 1007.7 |
| 20260506024203 | 48 | 334 | 4.0 | 8.0 | 0.00 | 0.00 | 0.00 | 88 | 1007.9 |
| 20260506023703 | 48 | 342 | 3.0 | 8.0 | 0.00 | 0.00 | 0.00 | 88 | 1007.9 |
| 20260506023204 | 48 | 347 | 4.0 | 8.0 | 0.00 | 0.00 | 0.00 | 87 | 1007.9 |
| 20260506022703 | 48 | 342 | 5.0 | 10.0 | 0.00 | 0.00 | 0.00 | 87 | 1007.9 |
| 20260506022203 | 48 | 337 | 5.0 | 10.0 | 0.00 | 0.00 | 0.00 | 87 | 1008.0 |
| 20260506021703 | 49 | 337 | 5.0 | 8.0 | 0.00 | 0.00 | 0.00 | 87 | 1008.0 |
| 20260506021203 | 49 | 341 | 4.0 | 8.0 | 0.00 | 0.00 | 0.00 | 86 | 1008.1 |
| 20260506020704 | 49 | 339 | 3.0 | 8.0 | 0.00 | 0.00 | 0.00 | 86 | 1008.0 |
| 20260506020203 | 49 | 358 | 3.0 | 9.0 | 0.00 | 0.00 | 0.00 | 86 | 1008.1 |
| 20260506015704 | 49 | 354 | 3.0 | 5.0 | 0.00 | 0.00 | 0.00 | 86 | 1008.1 |
| 20260506015203 | 49 | 335 | 3.0 | 7.0 | 0.00 | 0.00 | 0.00 | 86 | 1008.2 |
| 20260506014703 | 49 | 353 | 3.0 | 9.0 | 0.00 | 0.00 | 0.00 | 86 | 1008.2 |
| 20260506014203 | 50 | 355 | 4.0 | 8.0 | 0.00 | 0.00 | 0.00 | 86 | 1008.2 |
| 20260506013704 | 50 | 349 | 5.0 | 9.0 | 0.00 | 0.00 | 0.00 | 86 | 1008.2 |
| 20260506013203 | 50 | 314 | 3.0 | 8.0 | 0.00 | 0.00 | 0.00 | 86 | 1008.2 |
| 20260506012704 | 50 | 334 | 4.0 | 8.0 | 0.00 | 0.00 | 0.00 | 86 | 1008.2 |
| 20260506012203 | 50 | 344 | 3.0 | 8.0 | 0.00 | 0.00 | 0.00 | 86 | 1008.2 |
| 20260506011704 | 50 | 340 | 3.0 | 9.0 | 0.00 | 0.00 | 0.00 | 86 | 1008.3 |
| 20260506005704 | 50 | 344 | 3.0 | 10.0 | 0.00 | 0.00 | 0.00 | 86 | 1008.3 |
| 20260506005203 | 50 | 332 | 5.0 | 9.0 | 0.00 | 0.00 | 0.00 | 85 | 1008.4 |
| 20260506004703 | 50 | 337 | 5.0 | 10.0 | 0.00 | 0.00 | 0.00 | 85 | 1008.5 |
| 20260506004205 | 50 | 340 | 3.0 | 8.0 | 0.00 | 0.00 | 0.00 | 85 | 1008.5 |
| 20260506003204 | 50 | 348 | 3.0 | 8.0 | 0.00 | 0.00 | 0.00 | 85 | 1008.5 |
| 20260506002704 | 50 | 353 | 3.0 | 10.0 | 0.00 | 0.00 | 0.00 | 85 | 1008.6 |
| 20260506002204 | 50 | 342 | 5.0 | 10.0 | 0.00 | 0.00 | 0.00 | 85 | 1008.7 |
| 20260506001704 | 50 | 352 | 3.0 | 8.0 | 0.00 | 0.00 | 0.00 | 85 | 1008.7 |
| 20260506001203 | 50 | 10 | 3.0 | 9.0 | 0.00 | 0.00 | 0.00 | 85 | 1008.8 |
| 20260506000205 | 50 | 353 | 3.0 | 10.0 | 0.00 | 0.00 | 0.00 | 85 | 1008.9 |
| 20260505235704 | 50 | 9 | 3.0 | 9.0 | 0.00 | 0.00 | 0.00 | 85 | 1008.9 |
| 20260505234204 | 50 | 338 | 3.0 | 9.0 | 0.00 | 0.00 | 0.00 | 84 | 1008.9 |
| 20260505233704 | 50 | 1 | 3.0 | 10.0 | 0.00 | 0.00 | 0.00 | 84 | 1008.9 |
| 20260505233204 | 50 | 338 | 3.0 | 8.0 | 0.00 | 0.00 | 0.00 | 84 | 1008.9 |
| 20260505232704 | 50 | 347 | 3.0 | 9.0 | 0.00 | 0.00 | 0.00 | 84 | 1008.9 |
| 20260505232203 | 50 | 352 | 3.0 | 7.0 | 0.00 | 0.00 | 0.00 | 84 | 1009.0 |
| 20260505231704 | 50 | 343 | 3.0 | 8.0 | 0.00 | 0.00 | 0.00 | 84 | 1009.0 |
| 20260505231204 | 50 | 341 | 3.0 | 6.0 | 0.00 | 0.00 | 0.00 | 84 | 1009.1 |
| 20260505230704 | 50 | 9 | 3.0 | 8.0 | 0.00 | 0.00 | 0.00 | 83 | 1009.1 |
| 20260505230203 | 50 | 340 | 3.0 | 9.0 | 0.00 | 0.00 | 0.00 | 83 | 1009.1 |
| 20260505225704 | 50 | 337 | 2.0 | 3.0 | 0.00 | 0.00 | 0.00 | 83 | 1009.2 |
| 20260505224704 | 50 | 347 | 2.0 | 8.0 | 0.00 | 0.00 | 0.00 | 83 | 1009.2 |
| 20260505224204 | 50 | 326 | 3.0 | 7.0 | 0.00 | 0.00 | 0.00 | 83 | 1009.2 |
| 20260505223704 | 50 | 356 | 3.0 | 8.0 | 0.00 | 0.00 | 0.00 | 83 | 1009.3 |
| 20260505221704 | 50 | 352 | 2.0 | 7.0 | 0.00 | 0.00 | 0.00 | 83 | 1009.4 |
| 20260505221204 | 50 | 1 | 3.0 | 8.0 | 0.00 | 0.00 | 0.00 | 83 | 1009.4 |
| 20260505220704 | 50 | 9 | 3.0 | 10.0 | 0.00 | 0.00 | 0.00 | 83 | 1009.4 |
| 20260505220204 | 50 | 346 | 4.0 | 6.0 | 0.00 | 0.00 | 0.00 | 83 | 1009.5 |